[[{"header":{"parameterUnit":"m.s-1","parameterCategory":1,"la1":30.2991,"la2":30.254,"lo1":-89.0895,"lo2":-89.0444,"dy":0.0017,"dx":0.0017,"nx":28,"ny":28,"refTime":"2025-04-27T03:00:00:Z","depth":0,"parameterNumber":2,"parameterNumberName":"U-component_of_WINDS"},"data":[0,0,0,0,0,0,0,0,0,0,0,0,0,0,0,0,0,0,0,0,0,0,0,0,0,0,0,0,0,0,0,0,0,0,0,0,0,0,0,0,0,0,0,0,0,0,0,0,0,0,0,0,0,0,0,0,0,0,1.8277,1.8278,0,1.8318,1.8318,1.8319,1.8254,1.8252,1.825,1.8248,1.8289,1.8292,1.8295,0,0,0,0,0,0,0,0,0,0,0,0,0,1.8144,1.8147,1.8277,1.8278,1.8278,1.8318,1.8318,1.8319,1.8255,1.8252,1.8249,1.8247,1.8288,1.8292,1.8296,0,0,0,0,0,0,0,0,0,0,0,0,0,1.8195,1.8148,1.8277,1.8251,1.8249,1.8318,1.8318,1.8319,1.8255,1.8252,1.8249,1.8245,1.8287,1.8291,1.8296,1.8392,0,0,1.8311,1.8313,0,0,0,0,0,0,0,0,1.8192,1.82,1.8254,1.8253,1.8251,1.8278,1.8287,1.8344,1.8256,1.8253,1.8248,1.8244,1.8288,1.8292,1.8307,1.8394,1.8396,1.8311,1.8314,1.8316,1.8317,0,0,0,0,0,0,0,1.8189,1.8198,1.8293,1.8255,1.8253,1.8237,1.8241,1.8297,1.8289,1.8253,1.8248,1.8254,1.8286,1.8303,1.8308,1.8396,1.8311,1.8315,1.8318,1.832,1.8565,1.8569,0,0,0,0,0,0,1.8189,1.8195,1.8292,1.8294,1.8213,1.8242,1.8246,1.8272,1.8288,1.8287,1.8257,1.8251,1.8296,1.8302,1.8309,1.8423,1.8316,1.832,1.8323,1.8561,1.8566,1.857,0,0,0,0,0,0,1.8186,1.8198,1.829,1.8244,1.8254,1.8248,1.8278,1.8275,1.8291,1.8291,1.8289,1.8275,1.8294,1.8302,1.8372,1.8423,1.8323,1.8327,1.8557,1.8563,1.8568,1.8651,0,0,0,0,0,0,1.8182,1.8197,1.8233,1.8245,1.8257,1.8353,1.8281,1.8278,1.83,1.8292,1.8308,1.8307,1.8292,1.8365,1.8377,1.8428,1.8331,1.8552,1.856,1.8566,1.8644,1.8659,1.8672,0,0,0,0,0,1.8178,1.8255,1.8236,1.8247,1.8302,1.8356,1.8363,1.8344,1.8304,1.8341,1.834,1.8306,1.8416,1.8373,1.8385,1.8439,1.8549,1.8558,1.8566,1.8637,1.8656,1.8671,0,0,0,0,0,0,1.8249,1.8256,1.8234,1.8317,1.8337,1.8345,1.839,1.8364,1.8395,1.8386,1.8362,1.8366,1.8441,1.8447,1.8399,1.8533,1.8476,1.8487,1.8526,1.8544,1.8557,1.8554,1.8335,0,0,0,0,0,1.8274,1.8317,1.8321,1.8394,1.8405,1.8396,1.8419,1.8403,1.8422,1.8429,1.8434,1.8454,1.8493,1.8519,1.8554,1.8645,1.8647,1.8688,1.8701,1.8713,1.8723,1.8771,1.8789,1.8597,1.8597,1.8597,0,0,1.8327,1.8336,1.8364,1.8408,1.8421,1.8467,1.8403,1.8453,1.8487,1.8437,1.8503,1.8508,1.8528,1.8609,1.8645,1.8616,1.8777,1.8723,1.8733,1.8736,1.8782,1.88,1.8816,1.8602,1.8601,1.8601,0,0,1.8446,1.8457,1.8519,1.8534,1.8555,1.8549,1.8564,1.8577,1.8578,1.8644,1.8608,1.8648,1.8715,1.8731,1.8748,1.8875,1.8845,1.8888,1.896,1.9008,1.9023,1.9036,1.9082,1.9098,1.8898,1.8898,1.8898,0,1.8508,1.8575,1.8554,1.8608,1.8628,1.8586,1.8649,1.8665,1.8696,1.8711,1.8679,1.8763,1.8774,1.8858,1.889,1.8905,1.8921,1.8885,1.9023,1.9036,1.9048,1.9091,1.9108,1.8903,1.8902,1.8902,1.8901,0,1.8651,1.8698,1.8746,1.8778,1.8804,1.8862,1.8851,1.888,1.8863,1.886,1.8929,1.8941,1.8978,1.8997,1.898,1.908,1.9061,1.9027,1.8968,1.9072,1.9112,1.9128,1.891,1.8908,1.8907,1.8905,0,0,1.8814,1.8835,1.8853,1.8867,1.8888,1.8924,1.8981,1.9018,1.9044,1.9067,1.9114,1.9173,1.9141,1.9161,1.9146,1.9188,1.9288,1.9148,1.9148,1.9173,1.9399,1.9424,1.9444,1.9269,1.9272,1.9275,1.9397,0,1.8932,1.903,1.9014,1.9109,1.9152,1.9114,1.9163,1.9181,1.9181,1.9218,1.9218,1.926,1.9215,1.9227,1.9267,1.9268,1.9333,1.9259,1.9312,1.9315,1.9308,1.9465,1.9492,1.9607,1.9413,1.9415,1.9417,0,1.9083,1.9113,1.9212,1.9227,1.9244,1.9289,1.9323,1.9359,1.9379,1.9376,1.9399,1.9376,1.9433,1.9376,1.9454,1.9403,1.9425,1.9429,1.9433,1.9436,1.9371,1.9472,1.9643,1.966,1.9442,1.944,1.9438,0,1.9192,1.9257,1.9325,1.9338,1.9357,1.939,1.9399,1.9416,1.944,1.947,1.9485,1.9521,1.9541,1.9569,1.9557,1.9516,1.9638,1.9579,1.9637,1.9637,1.9663,1.9661,1.9839,1.9678,1.9678,1.9678,1.9677,0,1.9325,1.9387,1.9374,1.9416,1.9484,1.9466,1.9535,1.954,1.9556,1.9598,1.9567,1.9607,1.9589,1.9629,1.962,1.9686,1.9695,1.9694,1.9691,1.9697,1.9697,1.971,1.9701,1.9682,1.9681,1.968,1.968,0,1.9457,1.9451,1.9523,1.9536,1.954,1.9591,1.9602,1.9641,1.9639,1.9693,1.9705,1.9702,1.9746,1.9738,1.9787,1.9781,1.9864,1.9851,1.9857,1.9854,1.9912,1.9907,2.0104,2.0129,1.9952,1.9954,1.9956,0,1.9542,1.9589,1.9608,1.9634,1.9646,1.9689,1.9714,1.9698,1.9725,1.9753,1.9789,1.9831,1.9864,1.9937,1.9939,1.9977,1.9965,2.0031,1.997,1.9974,1.9965,1.9962,1.9967,2.0043,2.0045,2.0046,2.0048,0,1.9694,1.9689,1.9726,1.9762,1.9792,1.982,1.9845,1.9868,1.9855,1.9887,1.9932,1.9958,2.0009,2.0051,2.0086,2.0096,2.007,2.0067,2.0083,2.0088,2.009,2.009,1.989,2.0062,2.0061,2.006,2.0059,2.0059,1.9805,1.9846,1.9865,1.9907,1.9925,1.9949,1.9987,1.999,2.0028,2.0068,2.0057,2.0109,2.0129,2.0174,2.0188,2.0229,2.0204,2.0226,2.0232,2.0238,2.0245,2.0084,2.0235,2.0235,2.0235,2.0234,2.0234,0,1.9955,1.9966,2.0005,2.0041,2.0075,2.0048,2.0075,2.0104,2.0151,2.0172,2.0205,2.0258,2.03,2.0306,2.0345,2.0376,2.0366,2.0387,2.0384,2.0387,2.0265,2.0247,2.0395,2.0395,2.0395,2.0395,2.0395,2.0395,2.0037,2.0104,2.0102,2.0177,2.0188,2.0239,2.0256,2.0279,2.0296,2.0356,2.0391,2.0395,2.041,2.0451,2.0488,2.0488,2.0504,2.053,2.0527,2.0412,2.0396,2.038,2.0364,2.0534,2.0534,2.0646,2.0647,2.0647]},{"header":{"parameterUnit":"m.s-1","parameterCategory":1,"la1":30.2991,"la2":30.254,"lo1":-89.0895,"lo2":-89.0444,"dy":0.0017,"dx":0.0017,"nx":28,"ny":28,"refTime":"2025-04-27T03:00:00:Z","depth":0,"parameterNumber":3,"parameterNumberName":"V-component_of_WINDS"},"data":[0,0,0,0,0,0,0,0,0,0,0,0,0,0,0,0,0,0,0,0,0,0,0,0,0,0,0,0,0,0,0,0,0,0,0,0,0,0,0,0,0,0,0,0,0,0,0,0,0,0,0,0,0,0,0,0,0,0,-1.4205,-1.4206,0,-1.4218,-1.4218,-1.4218,-1.4222,-1.4222,-1.4222,-1.4222,-1.4235,-1.4235,-1.4235,0,0,0,0,0,0,0,0,0,0,0,0,0,-1.4185,-1.4185,-1.4205,-1.4206,-1.4206,-1.4218,-1.4218,-1.4218,-1.4222,-1.4222,-1.4222,-1.4222,-1.4235,-1.4235,-1.4235,0,0,0,0,0,0,0,0,0,0,0,0,0,-1.4195,-1.4185,-1.4205,-1.4209,-1.421,-1.4218,-1.4218,-1.4219,-1.4222,-1.4222,-1.4222,-1.4222,-1.4234,-1.4235,-1.4236,-1.4241,0,0,-1.4237,-1.4238,0,0,0,0,0,0,0,0,-1.4195,-1.4196,-1.4208,-1.4209,-1.4209,-1.4219,-1.4216,-1.4226,-1.4222,-1.4217,-1.4222,-1.4222,-1.4229,-1.423,-1.4233,-1.4242,-1.4242,-1.4237,-1.4238,-1.4238,-1.4238,0,0,0,0,0,0,0,-1.4194,-1.4195,-1.421,-1.4209,-1.4209,-1.421,-1.4212,-1.4218,-1.4224,-1.4218,-1.4218,-1.422,-1.423,-1.4232,-1.4233,-1.4242,-1.4237,-1.4238,-1.4238,-1.4238,-1.4257,-1.4257,0,0,0,0,0,0,-1.4192,-1.4195,-1.421,-1.4211,-1.4202,-1.4211,-1.4212,-1.4216,-1.4224,-1.4225,-1.422,-1.422,-1.4231,-1.4233,-1.4234,-1.4241,-1.4238,-1.4239,-1.4239,-1.4257,-1.4257,-1.4257,0,0,0,0,0,0,-1.4192,-1.4194,-1.421,-1.4203,-1.4205,-1.4211,-1.4215,-1.4216,-1.4219,-1.4225,-1.4226,-1.4221,-1.4231,-1.4233,-1.4239,-1.4241,-1.4239,-1.4239,-1.4257,-1.4257,-1.4257,-1.4255,0,0,0,0,0,0,-1.4191,-1.4194,-1.4196,-1.4203,-1.4205,-1.4215,-1.4215,-1.4216,-1.422,-1.422,-1.4227,-1.4228,-1.4231,-1.4238,-1.424,-1.4242,-1.424,-1.4256,-1.4257,-1.4257,-1.4255,-1.4255,-1.4256,0,0,0,0,0,-1.4191,-1.4194,-1.4196,-1.4197,-1.4208,-1.4215,-1.4216,-1.422,-1.422,-1.4222,-1.4226,-1.4228,-1.4241,-1.4239,-1.4241,-1.4243,-1.4256,-1.4257,-1.4257,-1.4255,-1.4255,-1.4256,0,0,0,0,0,0,-1.4187,-1.4195,-1.4197,-1.4203,-1.4208,-1.4216,-1.4218,-1.422,-1.4226,-1.4226,-1.423,-1.4232,-1.4238,-1.4241,-1.4239,-1.4249,-1.4249,-1.4249,-1.4247,-1.4247,-1.4247,-1.4246,-1.424,0,0,0,0,0,-1.4187,-1.4192,-1.4199,-1.4204,-1.4206,-1.4212,-1.4215,-1.4218,-1.4223,-1.4225,-1.423,-1.4235,-1.4241,-1.4244,-1.425,-1.4256,-1.4258,-1.4259,-1.4259,-1.4259,-1.4259,-1.4264,-1.4264,-1.4258,-1.4258,-1.4258,0,0,-1.4186,-1.4192,-1.4194,-1.4203,-1.4207,-1.4213,-1.4214,-1.4219,-1.4223,-1.4226,-1.4233,-1.4237,-1.4243,-1.4249,-1.4253,-1.4252,-1.4262,-1.4259,-1.426,-1.426,-1.4264,-1.4264,-1.4265,-1.4258,-1.4258,-1.4258,0,0,-1.4188,-1.4193,-1.4197,-1.4202,-1.4209,-1.4213,-1.4214,-1.4221,-1.4224,-1.4231,-1.4234,-1.4239,-1.4248,-1.4252,-1.4256,-1.4261,-1.4262,-1.4262,-1.4263,-1.4267,-1.4268,-1.4268,-1.427,-1.4271,-1.4263,-1.4263,-1.4263,0,-1.4187,-1.4195,-1.4199,-1.4205,-1.4209,-1.4213,-1.4218,-1.4222,-1.423,-1.4233,-1.4233,-1.4245,-1.4249,-1.4257,-1.4259,-1.4261,-1.4263,-1.4261,-1.4267,-1.4268,-1.4268,-1.427,-1.4271,-1.4263,-1.4263,-1.4263,-1.4263,0,-1.4193,-1.4198,-1.4201,-1.421,-1.4214,-1.4219,-1.4225,-1.4229,-1.4231,-1.4235,-1.4243,-1.4248,-1.4255,-1.4257,-1.426,-1.4266,-1.4266,-1.4266,-1.4266,-1.4269,-1.4271,-1.4271,-1.4263,-1.4263,-1.4263,-1.4263,0,0,-1.4191,-1.4203,-1.4204,-1.4208,-1.4217,-1.4221,-1.4227,-1.4234,-1.4237,-1.4243,-1.4248,-1.4256,-1.4257,-1.4261,-1.4264,-1.4268,-1.4272,-1.4268,-1.4269,-1.4269,-1.4279,-1.4278,-1.4279,-1.4273,-1.4274,-1.4274,-1.4279,0,-1.4194,-1.4205,-1.421,-1.4218,-1.4223,-1.4228,-1.4233,-1.4238,-1.4243,-1.4248,-1.4253,-1.4259,-1.4259,-1.4262,-1.4266,-1.4271,-1.4274,-1.427,-1.4278,-1.4278,-1.4276,-1.428,-1.4279,-1.4284,-1.428,-1.428,-1.428,0,-1.4199,-1.4205,-1.4214,-1.4223,-1.4225,-1.4229,-1.4237,-1.4242,-1.4249,-1.4252,-1.4257,-1.426,-1.4266,-1.4266,-1.4275,-1.4272,-1.4276,-1.4279,-1.4279,-1.428,-1.4279,-1.4281,-1.4285,-1.4286,-1.4281,-1.4281,-1.4281,0,-1.4197,-1.4208,-1.4215,-1.4218,-1.4228,-1.4231,-1.4236,-1.4243,-1.4247,-1.4253,-1.4256,-1.4263,-1.4267,-1.4272,-1.4278,-1.4277,-1.4286,-1.4286,-1.4289,-1.4289,-1.429,-1.429,-1.4295,-1.4293,-1.4293,-1.4293,-1.4293,0,-1.42,-1.4205,-1.4214,-1.4218,-1.4224,-1.4231,-1.4236,-1.4241,-1.4247,-1.4253,-1.4257,-1.4262,-1.4269,-1.4275,-1.4279,-1.4286,-1.4287,-1.429,-1.4291,-1.4289,-1.4289,-1.4291,-1.4291,-1.4293,-1.4293,-1.4293,-1.4293,0,-1.4199,-1.4205,-1.4213,-1.4222,-1.4225,-1.4229,-1.4237,-1.4241,-1.4246,-1.4252,-1.4254,-1.4262,-1.4269,-1.4275,-1.4284,-1.4287,-1.4295,-1.4296,-1.4292,-1.4293,-1.4295,-1.4295,-1.4301,-1.4303,-1.43,-1.43,-1.43,0,-1.42,-1.4204,-1.4214,-1.4218,-1.4222,-1.4229,-1.4233,-1.424,-1.4244,-1.4253,-1.4256,-1.4264,-1.427,-1.4281,-1.4288,-1.4295,-1.4296,-1.4298,-1.4297,-1.4296,-1.4296,-1.4296,-1.4296,-1.4298,-1.4298,-1.4298,-1.4298,0,-1.4201,-1.4204,-1.421,-1.4218,-1.4224,-1.423,-1.4236,-1.424,-1.4247,-1.4252,-1.426,-1.4265,-1.4275,-1.4282,-1.429,-1.4295,-1.4298,-1.4299,-1.43,-1.4298,-1.4296,-1.4297,-1.4292,-1.4298,-1.4298,-1.4298,-1.4298,-1.4298,-1.4201,-1.4205,-1.4213,-1.422,-1.4226,-1.4232,-1.4237,-1.4242,-1.4249,-1.4258,-1.4261,-1.4269,-1.4277,-1.4288,-1.4293,-1.4299,-1.4299,-1.4301,-1.4301,-1.4301,-1.4301,-1.4295,-1.4301,-1.4301,-1.4301,-1.4301,-1.4301,0,-1.4202,-1.4208,-1.4214,-1.4224,-1.4229,-1.4232,-1.424,-1.4245,-1.4251,-1.4258,-1.4265,-1.4274,-1.4281,-1.4289,-1.4297,-1.43,-1.4302,-1.4302,-1.4302,-1.4303,-1.43,-1.4299,-1.4301,-1.4301,-1.4301,-1.4301,-1.4301,-1.4301,-1.4203,-1.4211,-1.4215,-1.4225,-1.4231,-1.4239,-1.4243,-1.4249,-1.4255,-1.4265,-1.4271,-1.4276,-1.4283,-1.4292,-1.4299,-1.4301,-1.4304,-1.4304,-1.4306,-1.4303,-1.4303,-1.4303,-1.4301,-1.4304,-1.4304,-1.4308,-1.4308,-1.4308]}]]